sat.trackr.live / text

‹ back to catalog

QIANFAN-50

NORAD 62251 · 2024-232Q

PAYLOAD ACTIVE UNKNOWN

§ Identity

Operator
Country
PRC
Launch date
2024-12-05
Launch site
TAISC
Launch vehicle
Mass (kg)
RCS (m²)

External: N2YO · Heavens-Above · Gunter

§ Orbital elements

Epoch: 2026-09-22T19:43:57.571104Z

Period
106.59 min
Inclination
89.0171°
Eccentricity
0.0017778
Mean motion
13.51030523 rev/d
Perigee alt
1,055.2 km
Apogee alt
1,081.7 km
Semi-major
7,446.6 km
B*
1.3463e-4
RAAN
12.7560°
Arg perigee
96.9453°
Mean anomaly
263.3721°
Rev number
10,622

§ Raw data

QIANFAN-501 62251U 24232Q   26265.82219411  .00000099  00000+0  13463-3 0  99952 62251  89.0171  12.7560 0017778  96.9453 263.3721 13.51030523106229

JSON: /api/v1/satellites/62251 · /tle

For live sub-satellite position, see the globe view (requires WebGL).

§ Visibility from observer

Set your observer location to see the next 7 days of passes ≥ 10°. The values pass through the URL so the page stays shareable.

No JS? Fill the form by hand. The geolocation button needs JavaScript.